station,date_time,longitude_east,latitude_north,depth,sw_sal,sw_sal_result_value_qualifier,sea_water_temperature,sea_water_temperature_result_value_qualifier,sea_water_pressure,sea_water_pressure_result_value_qualifier,KD_PAR,KD_PAR_result_value_qualifier
CH33-1,2019-01-27T21:00:00Z,-79.07,53.67,1.50,2.54,,-0.38,,, NC,, NC
CH33-1,2019-01-27T21:10:00Z,-79.07,53.67,1.50,2.54,,-0.38,,, NC,, NC
CH33-1,2019-01-27T21:20:00Z,-79.07,53.67,1.50,2.54,,-0.38,,, NC,, NC
CH33-1,2019-01-27T21:30:00Z,-79.07,53.67,1.50,2.53,,-0.38,,, NC,, NC
CH33-1,2019-01-27T21:40:00Z,-79.07,53.67,1.50,2.53,,-0.39,,, NC,, NC
CH33-1,2019-01-27T21:50:00Z,-79.07,53.67,1.50,2.53,,-0.38,,, NC,, NC
CH33-1,2019-01-27T22:00:00Z,-79.07,53.67,1.50,2.52,,-0.39,,, NC,, NC
CH33-1,2019-01-27T22:10:00Z,-79.07,53.67,1.50,2.53,,-0.39,,, NC,, NC
CH33-1,2019-01-27T22:20:00Z,-79.07,53.67,1.50,2.52,,-0.39,,, NC,, NC
CH33-1,2019-01-27T22:30:00Z,-79.07,53.67,1.50,2.52,,-0.38,,, NC,, NC
CH33-1,2019-01-27T22:40:00Z,-79.07,53.67,1.50,2.52,,-0.39,,, NC,, NC
CH33-1,2019-01-27T22:50:00Z,-79.07,53.67,1.50,2.52,,-0.39,,, NC,, NC
CH33-1,2019-01-27T23:00:00Z,-79.07,53.67,1.50,2.52,,-0.38,,, NC,, NC
CH33-1,2019-01-27T23:10:00Z,-79.07,53.67,1.50,2.52,,-0.38,,, NC,, NC
CH33-1,2019-01-27T23:20:00Z,-79.07,53.67,1.50,2.52,,-0.39,,, NC,, NC
CH33-1,2019-01-27T23:30:00Z,-79.07,53.67,1.50,2.52,,-0.40,,, NC,, NC
CH33-1,2019-01-27T23:40:00Z,-79.07,53.67,1.50,2.52,,-0.38,,, NC,, NC
CH33-1,2019-01-27T23:50:00Z,-79.07,53.67,1.50,2.52,,-0.39,,, NC,, NC
CH33-1,2019-01-28T00:00:00Z,-79.07,53.67,1.50,2.52,,-0.39,,, NC,, NC
CH33-1,2019-01-28T00:10:00Z,-79.07,53.67,1.50,2.52,,-0.38,,, NC,, NC
CH33-1,2019-01-28T00:20:00Z,-79.07,53.67,1.50,2.52,,-0.39,,, NC,, NC
CH33-1,2019-01-28T00:30:00Z,-79.07,53.67,1.50,2.52,,-0.39,,, NC,, NC
CH33-1,2019-01-28T00:40:00Z,-79.07,53.67,1.50,2.52,,-0.39,,, NC,, NC
CH33-1,2019-01-28T00:50:00Z,-79.07,53.67,1.50,2.52,,-0.39,,, NC,, NC
CH33-1,2019-01-28T01:00:00Z,-79.07,53.67,1.50,2.51,,-0.38,,, NC,, NC
CH33-1,2019-01-28T01:10:00Z,-79.07,53.67,1.50,2.49,,-0.38,,, NC,, NC
CH33-1,2019-01-28T01:20:00Z,-79.07,53.67,1.50,2.49,,-0.38,,, NC,, NC
CH33-1,2019-01-28T01:30:00Z,-79.07,53.67,1.50,2.50,,-0.39,,, NC,, NC
CH33-1,2019-01-28T01:40:00Z,-79.07,53.67,1.50,2.50,,-0.39,,, NC,, NC
CH33-1,2019-01-28T01:50:00Z,-79.07,53.67,1.50,2.48,,-0.38,,, NC,, NC
CH33-1,2019-01-28T02:00:00Z,-79.07,53.67,1.50,2.48,,-0.38,,, NC,, NC
CH33-1,2019-01-28T02:10:00Z,-79.07,53.67,1.50,2.49,,-0.39,,, NC,, NC
CH33-1,2019-01-28T02:20:00Z,-79.07,53.67,1.50,2.49,,-0.39,,, NC,, NC
CH33-1,2019-01-28T02:30:00Z,-79.07,53.67,1.50,2.48,,-0.38,,, NC,, NC
CH33-1,2019-01-28T02:40:00Z,-79.07,53.67,1.50,2.48,,-0.39,,, NC,, NC
CH33-1,2019-01-28T02:50:00Z,-79.07,53.67,1.50,2.48,,-0.38,,, NC,, NC
CH33-1,2019-01-28T03:00:00Z,-79.07,53.67,1.50,2.48,,-0.38,,, NC,, NC
CH33-1,2019-01-28T03:10:00Z,-79.07,53.67,1.50,2.49,,-0.38,,, NC,, NC
CH33-1,2019-01-28T03:20:00Z,-79.07,53.67,1.50,2.49,,-0.39,,, NC,, NC
CH33-1,2019-01-28T03:30:00Z,-79.07,53.67,1.50,2.50,,-0.38,,, NC,, NC
CH33-1,2019-01-28T03:40:00Z,-79.07,53.67,1.50,2.51,,-0.39,,, NC,, NC
CH33-1,2019-01-28T03:50:00Z,-79.07,53.67,1.50,2.52,,-0.39,,, NC,, NC
CH33-1,2019-01-28T04:00:00Z,-79.07,53.67,1.50,2.54,,-0.39,,, NC,, NC
CH33-1,2019-01-28T04:10:00Z,-79.07,53.67,1.50,2.54,,-0.39,,, NC,, NC
CH33-1,2019-01-28T04:20:00Z,-79.07,53.67,1.50,2.54,,-0.38,,, NC,, NC
CH33-1,2019-01-28T04:30:00Z,-79.07,53.67,1.50,2.54,,-0.39,,, NC,, NC
CH33-1,2019-01-28T04:40:00Z,-79.07,53.67,1.50,2.54,,-0.38,,, NC,, NC
CH33-1,2019-01-28T04:50:00Z,-79.07,53.67,1.50,2.55,,-0.38,,, NC,, NC
CH33-1,2019-01-28T05:00:00Z,-79.07,53.67,1.50,2.55,,-0.38,,, NC,, NC
CH33-1,2019-01-28T05:10:00Z,-79.07,53.67,1.50,2.55,,-0.39,,, NC,, NC
CH33-1,2019-01-28T05:20:00Z,-79.07,53.67,1.50,2.55,,-0.40,,, NC,, NC
CH33-1,2019-01-28T05:30:00Z,-79.07,53.67,1.50,2.54,,-0.38,,, NC,, NC
CH33-1,2019-01-28T05:40:00Z,-79.07,53.67,1.50,2.54,,-0.39,,, NC,, NC
CH33-1,2019-01-28T05:50:00Z,-79.07,53.67,1.50,2.54,,-0.39,,, NC,, NC
CH33-1,2019-01-28T06:00:00Z,-79.07,53.67,1.50,2.54,,-0.38,,, NC,, NC
CH33-1,2019-01-28T06:10:00Z,-79.07,53.67,1.50,2.55,,-0.39,,, NC,, NC
CH33-1,2019-01-28T06:20:00Z,-79.07,53.67,1.50,2.55,,-0.39,,, NC,, NC
CH33-1,2019-01-28T06:30:00Z,-79.07,53.67,1.50,2.55,,-0.39,,, NC,, NC
CH33-1,2019-01-28T06:40:00Z,-79.07,53.67,1.50,2.55,,-0.39,,, NC,, NC
CH33-1,2019-01-28T06:50:00Z,-79.07,53.67,1.50,2.55,,-0.39,,, NC,, NC
CH33-1,2019-01-28T07:00:00Z,-79.07,53.67,1.50,2.56,,-0.39,,, NC,, NC
CH33-1,2019-01-28T07:10:00Z,-79.07,53.67,1.50,2.56,,-0.39,,, NC,, NC
CH33-1,2019-01-28T07:20:00Z,-79.07,53.67,1.50,2.56,,-0.39,,, NC,, NC
CH33-1,2019-01-28T07:30:00Z,-79.07,53.67,1.50,2.56,,-0.39,,, NC,, NC
CH33-1,2019-01-28T07:40:00Z,-79.07,53.67,1.50,2.56,,-0.39,,, NC,, NC
CH33-1,2019-01-28T07:50:00Z,-79.07,53.67,1.50,2.56,,-0.39,,, NC,, NC
CH33-1,2019-01-28T08:00:00Z,-79.07,53.67,1.50,2.56,,-0.39,,, NC,, NC
CH33-1,2019-01-28T08:10:00Z,-79.07,53.67,1.50,2.56,,-0.39,,, NC,, NC
CH33-1,2019-01-28T08:20:00Z,-79.07,53.67,1.50,2.55,,-0.39,,, NC,, NC
CH33-1,2019-01-28T08:30:00Z,-79.07,53.67,1.50,2.54,,-0.39,,, NC,, NC
CH33-1,2019-01-28T08:40:00Z,-79.07,53.67,1.50,2.54,,-0.39,,, NC,, NC
CH33-1,2019-01-28T08:50:00Z,-79.07,53.67,1.50,2.54,,-0.39,,, NC,, NC
CH33-1,2019-01-28T09:00:00Z,-79.07,53.67,1.50,2.55,,-0.39,,, NC,, NC
CH33-1,2019-01-28T09:10:00Z,-79.07,53.67,1.50,2.55,,-0.39,,, NC,, NC
CH33-1,2019-01-28T09:20:00Z,-79.07,53.67,1.50,2.55,,-0.39,,, NC,, NC
CH33-1,2019-01-28T09:30:00Z,-79.07,53.67,1.50,2.55,,-0.39,,, NC,, NC
CH33-1,2019-01-28T09:40:00Z,-79.07,53.67,1.50,2.55,,-0.39,,, NC,, NC
CH33-1,2019-01-28T09:50:00Z,-79.07,53.67,1.50,2.55,,-0.39,,, NC,, NC
CH33-1,2019-01-28T10:00:00Z,-79.07,53.67,1.50,2.54,,-0.39,,, NC,, NC
CH33-1,2019-01-28T10:10:00Z,-79.07,53.67,1.50,2.54,,-0.39,,, NC,, NC
CH33-1,2019-01-28T10:20:00Z,-79.07,53.67,1.50,2.54,,-0.39,,, NC,, NC
CH33-1,2019-01-28T10:30:00Z,-79.07,53.67,1.50,2.54,,-0.39,,, NC,, NC
CH33-1,2019-01-28T10:40:00Z,-79.07,53.67,1.50,2.56,,-0.39,,, NC,, NC
CH33-1,2019-01-28T10:50:00Z,-79.07,53.67,1.50,2.54,,-0.38,,, NC,, NC
CH33-1,2019-01-28T11:00:00Z,-79.07,53.67,1.50,2.54,,-0.39,,, NC,, NC
CH33-1,2019-01-28T11:10:00Z,-79.07,53.67,1.50,2.54,,-0.39,,, NC,, NC
CH33-1,2019-01-28T11:20:00Z,-79.07,53.67,1.50,2.54,,-0.39,,, NC,, NC
CH33-1,2019-01-28T11:30:00Z,-79.07,53.67,1.50,2.54,,-0.40,,, NC,, NC
CH33-1,2019-01-28T11:40:00Z,-79.07,53.67,1.50,2.54,,-0.39,,, NC,, NC
CH33-1,2019-01-28T11:50:00Z,-79.07,53.67,1.50,2.55,,-0.39,,, NC,, NC
CH33-1,2019-01-28T12:00:00Z,-79.07,53.67,1.50,2.55,,-0.39,,, NC,, NC
CH33-1,2019-01-28T12:10:00Z,-79.07,53.67,1.50,2.55,,-0.39,,, NC,, NC
CH33-1,2019-01-28T12:20:00Z,-79.07,53.67,1.50,2.55,,-0.39,,, NC,, NC
CH33-1,2019-01-28T12:30:00Z,-79.07,53.67,1.50,2.55,,-0.39,,, NC,, NC
CH33-1,2019-01-28T12:40:00Z,-79.07,53.67,1.50,2.54,,-0.39,,, NC,, NC
CH33-1,2019-01-28T12:50:00Z,-79.07,53.67,1.50,2.55,,-0.39,,, NC,, NC
CH33-1,2019-01-28T13:00:00Z,-79.07,53.67,1.50,2.55,,-0.39,,, NC,, NC
CH33-1,2019-01-28T13:10:00Z,-79.07,53.67,1.50,2.54,,-0.40,,, NC,, NC
CH33-1,2019-01-28T13:20:00Z,-79.07,53.67,1.50,2.54,,-0.39,,, NC,, NC
CH33-1,2019-01-28T13:30:00Z,-79.07,53.67,1.50,2.54,,-0.40,,, NC,, NC
CH33-1,2019-01-28T13:40:00Z,-79.07,53.67,1.50,2.54,,-0.39,,, NC,, NC
CH33-1,2019-01-28T13:50:00Z,-79.07,53.67,1.50,2.54,,-0.39,,, NC,, NC
CH33-1,2019-01-28T14:00:00Z,-79.07,53.67,1.50,2.55,,-0.39,,, NC,, NC
CH33-1,2019-01-28T14:10:00Z,-79.07,53.67,1.50,2.54,,-0.39,,, NC,, NC
CH33-1,2019-01-28T14:20:00Z,-79.07,53.67,1.50,2.54,,-0.39,,, NC,, NC
CH33-1,2019-01-28T14:30:00Z,-79.07,53.67,1.50,2.56,,-0.39,,, NC,, NC
CH33-1,2019-01-28T14:40:00Z,-79.07,53.67,1.50,2.56,,-0.39,,, NC,, NC
CH33-1,2019-01-28T14:50:00Z,-79.07,53.67,1.50,2.55,,-0.39,,, NC,, NC
CH33-1,2019-01-28T15:00:00Z,-79.07,53.67,1.50,2.53,,-0.39,,, NC,, NC
CH33-1,2019-01-28T15:10:00Z,-79.07,53.67,1.50,2.55,,-0.40,,, NC,, NC
CH33-1,2019-01-28T15:20:00Z,-79.07,53.67,1.50,2.56,,-0.39,,, NC,, NC
CH33-1,2019-01-28T15:30:00Z,-79.07,53.67,1.50,2.57,,-0.39,,, NC,, NC
CH33-1,2019-01-28T15:40:00Z,-79.07,53.67,1.50,2.58,,-0.39,,, NC,, NC
CH33-1,2019-01-28T15:50:00Z,-79.07,53.67,1.50,2.59,,-0.40,,, NC,, NC
CH33-1,2019-01-28T16:00:00Z,-79.07,53.67,1.50,2.59,,-0.39,,, NC,, NC
CH33-1,2019-01-28T16:10:00Z,-79.07,53.67,1.50,2.59,,-0.40,,, NC,, NC
CH33-1,2019-01-28T16:20:00Z,-79.07,53.67,1.50,2.58,,-0.40,,, NC,, NC
CH33-1,2019-01-28T16:30:00Z,-79.07,53.67,1.50,2.58,,-0.40,,, NC,, NC
CH33-1,2019-01-28T16:40:00Z,-79.07,53.67,1.50,2.57,,-0.40,,, NC,, NC
CH33-1,2019-01-28T16:50:00Z,-79.07,53.67,1.50,2.57,,-0.39,,, NC,, NC
CH33-1,2019-01-28T17:00:00Z,-79.07,53.67,1.50,2.57,,-0.40,,, NC,, NC
CH33-1,2019-01-28T17:10:00Z,-79.07,53.67,1.50,2.58,,-0.40,,, NC,, NC
CH33-1,2019-01-28T17:20:00Z,-79.07,53.67,1.50,2.57,,-0.39,,, NC,, NC
CH33-1,2019-01-28T17:30:00Z,-79.07,53.67,1.50,2.58,,-0.40,,, NC,, NC
CH33-1,2019-01-28T17:40:00Z,-79.07,53.67,1.50,2.58,,-0.39,,, NC,, NC
CH33-1,2019-01-28T17:50:00Z,-79.07,53.67,1.50,2.58,,-0.40,,, NC,, NC
CH33-1,2019-01-28T18:00:00Z,-79.07,53.67,1.50,2.59,,-0.40,,, NC,, NC
CH33-1,2019-01-28T18:10:00Z,-79.07,53.67,1.50,2.59,,-0.39,,, NC,, NC
CH33-1,2019-01-28T18:20:00Z,-79.07,53.67,1.50,2.59,,-0.40,,, NC,, NC
CH33-1,2019-01-28T18:30:00Z,-79.07,53.67,1.50,2.59,,-0.40,,, NC,, NC
CH33-1,2019-01-28T18:40:00Z,-79.07,53.67,1.50,2.60,,-0.39,,, NC,, NC
CH33-1,2019-01-28T18:50:00Z,-79.07,53.67,1.50,2.60,,-0.40,,, NC,, NC
CH33-1,2019-01-28T19:00:00Z,-79.07,53.67,1.50,2.60,,-0.40,,, NC,, NC
CH33-1,2019-01-28T19:10:00Z,-79.07,53.67,1.50,2.60,,-0.39,,, NC,, NC
CH33-1,2019-01-28T19:20:00Z,-79.07,53.67,1.50,2.61,,-0.40,,, NC,, NC
CH33-1,2019-01-28T19:30:00Z,-79.07,53.67,1.50,2.61,,-0.40,,, NC,, NC
CH33-1,2019-01-28T19:40:00Z,-79.07,53.67,1.50,2.61,,-0.39,,, NC,, NC
CH33-1,2019-01-28T19:50:00Z,-79.07,53.67,1.50,2.61,,-0.39,,, NC,, NC
CH33-1,2019-01-28T20:00:00Z,-79.07,53.67,1.50,2.61,,-0.40,,, NC,, NC
CH33-1,2019-01-28T20:10:00Z,-79.07,53.67,1.50,2.61,,-0.40,,, NC,, NC
CH33-1,2019-01-28T20:20:00Z,-79.07,53.67,1.50,2.61,,-0.40,,, NC,, NC
CH33-1,2019-01-28T20:30:00Z,-79.07,53.67,1.50,2.61,,-0.40,,, NC,, NC
CH33-1,2019-01-28T20:40:00Z,-79.07,53.67,1.50,2.61,,-0.39,,, NC,, NC
CH33-1,2019-01-28T20:50:00Z,-79.07,53.67,1.50,2.62,,-0.40,,, NC,, NC
CH33-1,2019-01-28T21:00:00Z,-79.07,53.67,1.50,2.63,,-0.40,,, NC,, NC
CH33-1,2019-01-28T21:10:00Z,-79.07,53.67,1.50,2.62,,-0.40,,, NC,, NC
CH33-1,2019-01-28T21:20:00Z,-79.07,53.67,1.50,2.62,,-0.40,,, NC,, NC
CH33-1,2019-01-28T21:30:00Z,-79.07,53.67,1.50,2.62,,-0.40,,, NC,, NC
CH33-1,2019-01-28T21:40:00Z,-79.07,53.67,1.50,2.61,,-0.40,,, NC,, NC
CH33-1,2019-01-28T21:50:00Z,-79.07,53.67,1.50,2.60,,-0.40,,, NC,, NC
CH33-1,2019-01-28T22:00:00Z,-79.07,53.67,1.50,2.59,,-0.41,,, NC,, NC
CH33-1,2019-01-28T22:10:00Z,-79.07,53.67,1.50,2.58,,-0.40,,, NC,, NC
CH33-1,2019-01-28T22:20:00Z,-79.07,53.67,1.50,2.59,,-0.40,,, NC,, NC
CH33-1,2019-01-28T22:30:00Z,-79.07,53.67,1.50,2.58,,-0.40,,, NC,, NC
CH33-1,2019-01-28T22:40:00Z,-79.07,53.67,1.50,2.61,,-0.40,,, NC,, NC
CH33-1,2019-01-28T22:50:00Z,-79.07,53.67,1.50,2.61,,-0.41,,, NC,, NC
CH33-1,2019-01-28T23:00:00Z,-79.07,53.67,1.50,2.61,,-0.40,,, NC,, NC
CH33-1,2019-01-28T23:10:00Z,-79.07,53.67,1.50,2.58,,-0.39,,, NC,, NC
CH33-1,2019-01-28T23:20:00Z,-79.07,53.67,1.50,2.57,,-0.41,,, NC,, NC
CH33-1,2019-01-28T23:30:00Z,-79.07,53.67,1.50,2.58,,-0.40,,, NC,, NC
CH33-1,2019-01-28T23:40:00Z,-79.07,53.67,1.50,2.57,,-0.40,,, NC,, NC
CH33-1,2019-01-28T23:50:00Z,-79.07,53.67,1.50,2.57,,-0.39,,, NC,, NC
CH33-1,2019-01-29T00:00:00Z,-79.07,53.67,1.50,2.57,,-0.39,,, NC,, NC
CH33-1,2019-01-29T00:10:00Z,-79.07,53.67,1.50,2.57,,-0.40,,, NC,, NC
CH33-1,2019-01-29T00:20:00Z,-79.07,53.67,1.50,2.57,,-0.40,,, NC,, NC
CH33-1,2019-01-29T00:30:00Z,-79.07,53.67,1.50,2.57,,-0.40,,, NC,, NC
CH33-1,2019-01-29T00:40:00Z,-79.07,53.67,1.50,2.69,,-0.40,,, NC,, NC
CH33-1,2019-01-29T00:50:00Z,-79.07,53.67,1.50,2.73,,-0.41,,, NC,, NC
CH33-1,2019-01-29T01:00:00Z,-79.07,53.67,1.50,2.71,,-0.40,,, NC,, NC
CH33-1,2019-01-29T01:10:00Z,-79.07,53.67,1.50,2.63,,-0.39,,, NC,, NC
CH33-1,2019-01-29T01:20:00Z,-79.07,53.67,1.50,2.62,,-0.39,,, NC,, NC
CH33-1,2019-01-29T01:30:00Z,-79.07,53.67,1.50,2.58,,-0.39,,, NC,, NC
CH33-1,2019-01-29T01:40:00Z,-79.07,53.67,1.50,2.58,,-0.40,,, NC,, NC
CH33-1,2019-01-29T01:50:00Z,-79.07,53.67,1.50,2.57,,-0.39,,, NC,, NC
CH33-1,2019-01-29T02:00:00Z,-79.07,53.67,1.50,2.58,,-0.40,,, NC,, NC
CH33-1,2019-01-29T02:10:00Z,-79.07,53.67,1.50,2.58,,-0.40,,, NC,, NC
CH33-1,2019-01-29T02:20:00Z,-79.07,53.67,1.50,2.59,,-0.40,,, NC,, NC
CH33-1,2019-01-29T02:30:00Z,-79.07,53.67,1.50,2.59,,-0.39,,, NC,, NC
CH33-1,2019-01-29T02:40:00Z,-79.07,53.67,1.50,2.59,,-0.40,,, NC,, NC
CH33-1,2019-01-29T02:50:00Z,-79.07,53.67,1.50,2.59,,-0.39,,, NC,, NC
CH33-1,2019-01-29T03:00:00Z,-79.07,53.67,1.50,2.59,,-0.40,,, NC,, NC
CH33-1,2019-01-29T03:10:00Z,-79.07,53.67,1.50,2.59,,-0.40,,, NC,, NC
CH33-1,2019-01-29T03:20:00Z,-79.07,53.67,1.50,2.60,,-0.40,,, NC,, NC
CH33-1,2019-01-29T03:30:00Z,-79.07,53.67,1.50,2.59,,-0.40,,, NC,, NC
CH33-1,2019-01-29T03:40:00Z,-79.07,53.67,1.50,2.60,,-0.39,,, NC,, NC
CH33-1,2019-01-29T03:50:00Z,-79.07,53.67,1.50,2.62,,-0.40,,, NC,, NC
CH33-1,2019-01-29T04:00:00Z,-79.07,53.67,1.50,2.59,,-0.39,,, NC,, NC
CH33-1,2019-01-29T04:10:00Z,-79.07,53.67,1.50,2.60,,-0.40,,, NC,, NC
CH33-1,2019-01-29T04:20:00Z,-79.07,53.67,1.50,2.63,,-0.40,,, NC,, NC
CH33-1,2019-01-29T04:30:00Z,-79.07,53.67,1.50,2.63,,-0.41,,, NC,, NC
CH33-1,2019-01-29T04:40:00Z,-79.07,53.67,1.50,2.64,,-0.40,,, NC,, NC
CH33-1,2019-01-29T04:50:00Z,-79.07,53.67,1.50,2.64,,-0.40,,, NC,, NC
CH33-1,2019-01-29T05:00:00Z,-79.07,53.67,1.50,2.64,,-0.40,,, NC,, NC
CH33-1,2019-01-29T05:10:00Z,-79.07,53.67,1.50,2.65,,-0.40,,, NC,, NC
CH33-1,2019-01-29T05:20:00Z,-79.07,53.67,1.50,2.66,,-0.40,,, NC,, NC
CH33-1,2019-01-29T05:30:00Z,-79.07,53.67,1.50,2.66,,-0.40,,, NC,, NC
CH33-1,2019-01-29T05:40:00Z,-79.07,53.67,1.50,2.67,,-0.40,,, NC,, NC
CH33-1,2019-01-29T05:50:00Z,-79.07,53.67,1.50,2.66,,-0.41,,, NC,, NC
CH33-1,2019-01-29T06:00:00Z,-79.07,53.67,1.50,2.66,,-0.41,,, NC,, NC
CH33-1,2019-01-29T06:10:00Z,-79.07,53.67,1.50,2.66,,-0.41,,, NC,, NC
CH33-1,2019-01-29T06:20:00Z,-79.07,53.67,1.50,2.66,,-0.40,,, NC,, NC
CH33-1,2019-01-29T06:30:00Z,-79.07,53.67,1.50,2.65,,-0.40,,, NC,, NC
CH33-1,2019-01-29T06:40:00Z,-79.07,53.67,1.50,2.65,,-0.40,,, NC,, NC
CH33-1,2019-01-29T06:50:00Z,-79.07,53.67,1.50,2.65,,-0.40,,, NC,, NC
CH33-1,2019-01-29T07:00:00Z,-79.07,53.67,1.50,2.65,,-0.40,,, NC,, NC
CH33-1,2019-01-29T07:10:00Z,-79.07,53.67,1.50,2.64,,-0.39,,, NC,, NC
CH33-1,2019-01-29T07:20:00Z,-79.07,53.67,1.50,2.64,,-0.40,,, NC,, NC
CH33-1,2019-01-29T07:30:00Z,-79.07,53.67,1.50,2.64,,-0.41,,, NC,, NC
CH33-1,2019-01-29T07:40:00Z,-79.07,53.67,1.50,2.64,,-0.40,,, NC,, NC
CH33-1,2019-01-29T07:50:00Z,-79.07,53.67,1.50,2.64,,-0.40,,, NC,, NC
CH33-1,2019-01-29T08:00:00Z,-79.07,53.67,1.50,2.64,,-0.40,,, NC,, NC
CH33-1,2019-01-29T08:10:00Z,-79.07,53.67,1.50,2.64,,-0.40,,, NC,, NC
CH33-1,2019-01-29T08:20:00Z,-79.07,53.67,1.50,2.64,,-0.40,,, NC,, NC
CH33-1,2019-01-29T08:30:00Z,-79.07,53.67,1.50,2.63,,-0.40,,, NC,, NC
CH33-1,2019-01-29T08:40:00Z,-79.07,53.67,1.50,2.63,,-0.40,,, NC,, NC
CH33-1,2019-01-29T08:50:00Z,-79.07,53.67,1.50,2.63,,-0.40,,, NC,, NC
CH33-1,2019-01-29T09:00:00Z,-79.07,53.67,1.50,2.64,,-0.41,,, NC,, NC
CH33-1,2019-01-29T09:10:00Z,-79.07,53.67,1.50,2.63,,-0.40,,, NC,, NC
CH33-1,2019-01-29T09:20:00Z,-79.07,53.67,1.50,2.63,,-0.41,,, NC,, NC
CH33-1,2019-01-29T09:30:00Z,-79.07,53.67,1.50,2.63,,-0.40,,, NC,, NC
CH33-1,2019-01-29T09:40:00Z,-79.07,53.67,1.50,2.63,,-0.39,,, NC,, NC
CH33-1,2019-01-29T09:50:00Z,-79.07,53.67,1.50,2.63,,-0.40,,, NC,, NC
CH33-1,2019-01-29T10:00:00Z,-79.07,53.67,1.50,2.63,,-0.40,,, NC,, NC
CH33-1,2019-01-29T10:10:00Z,-79.07,53.67,1.50,2.64,,-0.41,,, NC,, NC
CH33-1,2019-01-29T10:20:00Z,-79.07,53.67,1.50,2.64,,-0.40,,, NC,, NC
CH33-1,2019-01-29T10:30:00Z,-79.07,53.67,1.50,2.64,,-0.40,,, NC,, NC
CH33-1,2019-01-29T10:40:00Z,-79.07,53.67,1.50,2.64,,-0.40,,, NC,, NC
CH33-1,2019-01-29T10:50:00Z,-79.07,53.67,1.50,2.63,,-0.40,,, NC,, NC
CH33-1,2019-01-29T11:00:00Z,-79.07,53.67,1.50,2.63,,-0.40,,, NC,, NC
CH33-1,2019-01-29T11:10:00Z,-79.07,53.67,1.50,2.65,,-0.40,,, NC,, NC
CH33-1,2019-01-29T11:20:00Z,-79.07,53.67,1.50,2.64,,-0.40,,, NC,, NC
CH33-1,2019-01-29T11:30:00Z,-79.07,53.67,1.50,2.68,,-0.40,,, NC,, NC
CH33-1,2019-01-29T11:40:00Z,-79.07,53.67,1.50,2.67,,-0.40,,, NC,, NC
CH33-1,2019-01-29T11:50:00Z,-79.07,53.67,1.50,2.65,,-0.41,,, NC,, NC
CH33-1,2019-01-29T12:00:00Z,-79.07,53.67,1.50,2.64,,-0.40,,, NC,, NC
CH33-1,2019-01-29T12:10:00Z,-79.07,53.67,1.50,2.62,,-0.40,,, NC,, NC
CH33-1,2019-01-29T12:20:00Z,-79.07,53.67,1.50,2.61,,-0.40,,, NC,, NC
CH33-1,2019-01-29T12:30:00Z,-79.07,53.67,1.50,2.61,,-0.40,,, NC,, NC
CH33-1,2019-01-29T12:40:00Z,-79.07,53.67,1.50,2.59,,-0.39,,, NC,, NC
CH33-1,2019-01-29T12:50:00Z,-79.07,53.67,1.50,2.59,,-0.40,,, NC,, NC
CH33-1,2019-01-29T13:00:00Z,-79.07,53.67,1.50,2.60,,-0.40,,, NC,, NC
CH33-1,2019-01-29T13:10:00Z,-79.07,53.67,1.50,2.59,,-0.39,,, NC,, NC
CH33-1,2019-01-29T13:20:00Z,-79.07,53.67,1.50,2.58,,-0.40,,, NC,, NC
CH33-1,2019-01-29T13:30:00Z,-79.07,53.67,1.50,2.58,,-0.40,,, NC,, NC
CH33-1,2019-01-29T13:40:00Z,-79.07,53.67,1.50,2.58,,-0.40,,, NC,, NC
CH33-1,2019-01-29T13:50:00Z,-79.07,53.67,1.50,2.58,,-0.40,,, NC,, NC
CH33-1,2019-01-29T14:00:00Z,-79.07,53.67,1.50,2.58,,-0.40,,, NC,, NC
CH33-1,2019-01-29T14:10:00Z,-79.07,53.67,1.50,2.58,,-0.40,,, NC,, NC
CH33-1,2019-01-29T14:20:00Z,-79.07,53.67,1.50,2.58,,-0.39,,, NC,, NC
CH33-1,2019-01-29T14:30:00Z,-79.07,53.67,1.50,2.58,,-0.40,,, NC,, NC
CH33-1,2019-01-29T14:40:00Z,-79.07,53.67,1.50,2.59,,-0.40,,, NC,, NC
CH33-1,2019-01-29T14:50:00Z,-79.07,53.67,1.50,2.59,,-0.40,,, NC,, NC
CH33-1,2019-01-29T15:00:00Z,-79.07,53.67,1.50,2.59,,-0.40,,, NC,, NC
CH33-1,2019-01-29T15:10:00Z,-79.07,53.67,1.50,2.59,,-0.40,,, NC,, NC
CH33-1,2019-01-29T15:20:00Z,-79.07,53.67,1.50,2.59,,-0.40,,, NC,, NC
CH33-1,2019-01-29T15:30:00Z,-79.07,53.67,1.50,2.60,,-0.40,,, NC,, NC
CH33-1,2019-01-29T15:40:00Z,-79.07,53.67,1.50,2.60,,-0.40,,, NC,, NC
CH33-1,2019-01-29T15:50:00Z,-79.07,53.67,1.50,2.60,,-0.40,,, NC,, NC
CH33-1,2019-01-29T16:00:00Z,-79.07,53.67,1.50,2.62,,-0.40,,, NC,, NC
CH33-1,2019-01-29T16:10:00Z,-79.07,53.67,1.50,2.62,,-0.40,,, NC,, NC
CH33-1,2019-01-29T16:20:00Z,-79.07,53.67,1.50,2.61,,-0.40,,, NC,, NC
CH33-1,2019-01-29T16:30:00Z,-79.07,53.67,1.50,2.59,,-0.40,,, NC,, NC
CH33-1,2019-01-29T16:40:00Z,-79.07,53.67,1.50,2.63,,-0.41,,, NC,, NC
CH33-1,2019-01-29T16:50:00Z,-79.07,53.67,1.50,2.62,,-0.41,,, NC,, NC
CH33-1,2019-01-29T17:00:00Z,-79.07,53.67,1.50,2.63,,-0.40,,, NC,, NC
CH33-1,2019-01-29T17:10:00Z,-79.07,53.67,1.50,2.65,,-0.40,,, NC,, NC
CH33-1,2019-01-29T17:20:00Z,-79.07,53.67,1.50,2.64,,-0.40,,, NC,, NC
CH33-1,2019-01-29T17:30:00Z,-79.07,53.67,1.50,2.64,,-0.40,,, NC,, NC
CH33-1,2019-01-29T17:40:00Z,-79.07,53.67,1.50,2.64,,-0.39,,, NC,, NC
CH33-1,2019-01-29T17:50:00Z,-79.07,53.67,1.50,2.65,,-0.41,,, NC,, NC
CH33-1,2019-01-29T18:00:00Z,-79.07,53.67,1.50,2.65,,-0.40,,, NC,, NC
CH33-1,2019-01-29T18:10:00Z,-79.07,53.67,1.50,2.66,,-0.40,,, NC,, NC
CH33-1,2019-01-29T18:20:00Z,-79.07,53.67,1.50,2.67,,-0.41,,, NC,, NC
CH33-1,2019-01-29T18:30:00Z,-79.07,53.67,1.50,2.67,,-0.40,,, NC,, NC
CH33-1,2019-01-29T18:40:00Z,-79.07,53.67,1.50,2.68,,-0.40,,, NC,, NC
CH33-1,2019-01-29T18:50:00Z,-79.07,53.67,1.50,2.67,,-0.40,,, NC,, NC
CH33-1,2019-01-29T19:00:00Z,-79.07,53.67,1.50,2.67,,-0.40,,, NC,, NC
CH33-1,2019-01-29T19:10:00Z,-79.07,53.67,1.50,2.67,,-0.41,,, NC,, NC
CH33-1,2019-01-29T19:20:00Z,-79.07,53.67,1.50,2.67,,-0.41,,, NC,, NC
CH33-1,2019-01-29T19:30:00Z,-79.07,53.67,1.50,2.67,,-0.40,,, NC,, NC
CH33-1,2019-01-29T19:40:00Z,-79.07,53.67,1.50,2.67,,-0.40,,, NC,, NC
CH33-1,2019-01-29T19:50:00Z,-79.07,53.67,1.50,2.67,,-0.41,,, NC,, NC
CH33-1,2019-01-29T20:00:00Z,-79.07,53.67,1.50,2.67,,-0.40,,, NC,, NC
CH33-1,2019-01-29T20:10:00Z,-79.07,53.67,1.50,2.67,,-0.40,,, NC,, NC
CH33-1,2019-01-29T20:20:00Z,-79.07,53.67,1.50,2.67,,-0.41,,, NC,, NC
CH33-1,2019-01-29T20:30:00Z,-79.07,53.67,1.50,2.66,,-0.40,,, NC,, NC
CH33-1,2019-01-29T20:40:00Z,-79.07,53.67,1.50,2.66,,-0.40,,, NC,, NC
CH33-1,2019-01-29T20:50:00Z,-79.07,53.67,1.50,2.66,,-0.41,,, NC,, NC
CH33-1,2019-01-29T21:00:00Z,-79.07,53.67,1.50,2.66,,-0.40,,, NC,, NC
CH33-1,2019-01-29T21:10:00Z,-79.07,53.67,1.50,2.66,,-0.41,,, NC,, NC
CH33-1,2019-01-29T21:20:00Z,-79.07,53.67,1.50,2.66,,-0.41,,, NC,, NC
CH33-1,2019-01-29T21:30:00Z,-79.07,53.67,1.50,2.66,,-0.40,,, NC,, NC
CH33-1,2019-01-29T21:40:00Z,-79.07,53.67,1.50,2.66,,-0.40,,, NC,, NC
CH33-1,2019-01-29T21:50:00Z,-79.07,53.67,1.50,2.66,,-0.41,,, NC,, NC
CH33-1,2019-01-29T22:00:00Z,-79.07,53.67,1.50,2.66,,-0.40,,, NC,, NC
CH33-1,2019-01-29T22:10:00Z,-79.07,53.67,1.50,2.65,,-0.40,,, NC,, NC
CH33-1,2019-01-29T22:20:00Z,-79.07,53.67,1.50,2.65,,-0.41,,, NC,, NC
CH33-1,2019-01-29T22:30:00Z,-79.07,53.67,1.50,2.65,,-0.41,,, NC,, NC
CH33-1,2019-01-29T22:40:00Z,-79.07,53.67,1.50,2.65,,-0.41,,, NC,, NC
CH33-1,2019-01-29T22:50:00Z,-79.07,53.67,1.50,2.65,,-0.40,,, NC,, NC
CH33-1,2019-01-29T23:00:00Z,-79.07,53.67,1.50,2.65,,-0.40,,, NC,, NC
CH33-1,2019-01-29T23:10:00Z,-79.07,53.67,1.50,2.65,,-0.41,,, NC,, NC
CH33-1,2019-01-29T23:20:00Z,-79.07,53.67,1.50,2.64,,-0.40,,, NC,, NC
CH33-1,2019-01-29T23:30:00Z,-79.07,53.67,1.50,2.99,,-0.42,,, NC,, NC
CH33-1,2019-01-29T23:40:00Z,-79.07,53.67,1.50,2.87,,-0.42,,, NC,, NC
CH33-1,2019-01-29T23:50:00Z,-79.07,53.67,1.50,2.74,,-0.41,,, NC,, NC
CH33-1,2019-01-30T00:00:00Z,-79.07,53.67,1.50,2.66,,-0.40,,, NC,, NC
CH33-1,2019-01-30T00:10:00Z,-79.07,53.67,1.50,2.72,,-0.41,,, NC,, NC
CH33-1,2019-01-30T00:20:00Z,-79.07,53.67,1.50,2.81,,-0.41,,, NC,, NC
CH33-1,2019-01-30T00:30:00Z,-79.07,53.67,1.50,2.77,,-0.40,,, NC,, NC
CH33-1,2019-01-30T00:40:00Z,-79.07,53.67,1.50,2.75,,-0.40,,, NC,, NC
CH33-1,2019-01-30T00:50:00Z,-79.07,53.67,1.50,2.63,,-0.40,,, NC,, NC
CH33-1,2019-01-30T01:00:00Z,-79.07,53.67,1.50,2.88,,-0.41,,, NC,, NC
CH33-1,2019-01-30T01:10:00Z,-79.07,53.67,1.50,2.85,,-0.41,,, NC,, NC
CH33-1,2019-01-30T01:20:00Z,-79.07,53.67,1.50,2.74,,-0.41,,, NC,, NC
CH33-1,2019-01-30T01:30:00Z,-79.07,53.67,1.50,2.67,,-0.41,,, NC,, NC
CH33-1,2019-01-30T01:40:00Z,-79.07,53.67,1.50,2.65,,-0.41,,, NC,, NC
CH33-1,2019-01-30T01:50:00Z,-79.07,53.67,1.50,2.64,,-0.40,,, NC,, NC
CH33-1,2019-01-30T02:00:00Z,-79.07,53.67,1.50,2.64,,-0.41,,, NC,, NC
CH33-1,2019-01-30T02:10:00Z,-79.07,53.67,1.50,2.64,,-0.40,,, NC,, NC
CH33-1,2019-01-30T02:20:00Z,-79.07,53.67,1.50,2.64,,-0.40,,, NC,, NC
CH33-1,2019-01-30T02:30:00Z,-79.07,53.67,1.50,2.64,,-0.40,,, NC,, NC
CH33-1,2019-01-30T02:40:00Z,-79.07,53.67,1.50,2.64,,-0.41,,, NC,, NC
CH33-1,2019-01-30T02:50:00Z,-79.07,53.67,1.50,2.64,,-0.40,,, NC,, NC
CH33-1,2019-01-30T03:00:00Z,-79.07,53.67,1.50,2.64,,-0.40,,, NC,, NC
CH33-1,2019-01-30T03:10:00Z,-79.07,53.67,1.50,2.64,,-0.41,,, NC,, NC
CH33-1,2019-01-30T03:20:00Z,-79.07,53.67,1.50,2.64,,-0.40,,, NC,, NC
CH33-1,2019-01-30T03:30:00Z,-79.07,53.67,1.50,2.64,,-0.40,,, NC,, NC
CH33-1,2019-01-30T03:40:00Z,-79.07,53.67,1.50,2.64,,-0.40,,, NC,, NC
CH33-1,2019-01-30T03:50:00Z,-79.07,53.67,1.50,2.64,,-0.40,,, NC,, NC
CH33-1,2019-01-30T04:00:00Z,-79.07,53.67,1.50,2.65,,-0.41,,, NC,, NC
CH33-1,2019-01-30T04:10:00Z,-79.07,53.67,1.50,2.65,,-0.39,,, NC,, NC
CH33-1,2019-01-30T04:20:00Z,-79.07,53.67,1.50,2.66,,-0.41,,, NC,, NC
CH33-1,2019-01-30T04:30:00Z,-79.07,53.67,1.50,2.66,,-0.40,,, NC,, NC
CH33-1,2019-01-30T04:40:00Z,-79.07,53.67,1.50,2.67,,-0.40,,, NC,, NC
CH33-1,2019-01-30T04:50:00Z,-79.07,53.67,1.50,2.67,,-0.41,,, NC,, NC
CH33-1,2019-01-30T05:00:00Z,-79.07,53.67,1.50,3.31,,-0.43,,, NC,, NC
CH33-1,2019-01-30T05:10:00Z,-79.07,53.67,1.50,2.78,,-0.41,,, NC,, NC
CH33-1,2019-01-30T05:20:00Z,-79.07,53.67,1.50,2.91,,-0.42,,, NC,, NC
CH33-1,2019-01-30T05:30:00Z,-79.07,53.67,1.50,2.69,,-0.41,,, NC,, NC
CH33-1,2019-01-30T05:40:00Z,-79.07,53.67,1.50,2.71,,-0.41,,, NC,, NC
CH33-1,2019-01-30T05:50:00Z,-79.07,53.67,1.50,2.70,,-0.41,,, NC,, NC
CH33-1,2019-01-30T06:00:00Z,-79.07,53.67,1.50,2.71,,-0.40,,, NC,, NC
CH33-1,2019-01-30T06:10:00Z,-79.07,53.67,1.50,2.71,,-0.41,,, NC,, NC